Date,TemperatureHighF,TemperatureAvgF,TemperatureLowF,DewpointHighF,DewpointAvgF,DewpointLowF,HumidityHigh,HumidityAvg,HumidityLow,PressureMaxIn,PressureMinIn,WindSpeedMaxMPH,WindSpeedAvgMPH,GustSpeedMaxMPH,PrecipitationSumIn
2013-3-1,39.8,36.6,31.4,31.7,29.8,25.3,89,76,63,29.84,29.65,14,3,14,0.00
2013-3-2,36.1,32.2,28.9,25.7,23.7,22.3,79,71,60,29.84,29.75,18,4,18,0.00
2013-3-3,33.8,29.7,25.3,24.1,20.9,16.9,78,70,61,29.84,29.75,20,6,20,0.00
2013-3-4,35.4,29.8,25.4,24.2,20.3,17.3,73,67,60,30.00,29.84,26,8,28,0.00
2013-3-5,46.4,35.2,28.2,31.0,25.8,21.3,80,69,53,30.06,29.89,15,3,16,0.00
2013-3-6,38.6,36.3,34.0,35.1,31.7,27.5,92,83,72,29.98,29.75,29,6,33,0.17
2013-3-7,44.9,37.7,33.6,29.8,27.0,23.9,77,66,51,30.12,29.98,15,4,21,0.00
2013-3-8,42.9,36.1,30.6,30.4,25.5,21.7,77,65,58,30.28,30.09,25,6,26,0.00
2013-3-9,60.9,43.7,30.9,30.1,24.3,19.4,71,49,24,30.32,30.23,12,2,12,0.00
2013-3-10,56.5,46.4,37.7,35.2,25.7,17.0,80,45,31,30.31,30.20,20,6,20,0.00
2013-3-11,54.2,45.5,36.7,49.0,42.1,34.0,99,88,66,30.23,29.92,25,10,25,0.00
2013-3-12,53.9,48.8,39.7,53.9,45.7,32.4,100,90,71,29.92,29.70,28,10,29,1.14
2013-3-13,43.9,38.7,30.5,34.0,27.5,18.7,82,64,47,29.98,29.84,23,6,26,0.00
2013-3-14,39.1,32.6,27.3,23.0,18.2,15.1,81,56,40,30.03,29.94,28,9,34,0.00
2013-3-15,50.8,37.8,23.4,35.1,24.5,13.7,68,59,46,30.03,29.73,21,5,21,0.00
2013-3-16,45.2,34.5,30.6,34.2,29.7,24.8,97,84,63,29.92,29.72,13,1,16,0.00
2013-3-17,36.9,32.0,28.2,30.4,25.5,22.0,97,78,58,30.28,29.92,12,1,12,0.12
2013-3-18,33.0,30.4,27.3,32.0,23.1,16.0,97,75,55,30.33,29.89,20,6,21,0.00
2013-3-19,49.9,37.6,31.4,37.2,30.6,20.0,99,79,40,29.90,29.68,26,4,26,0.29
2013-3-20,44.7,36.3,30.2,24.7,21.2,18.8,71,55,36,29.92,29.76,25,6,26,0.00
2013-3-21,34.8,30.1,25.6,22.6,17.2,10.7,77,59,42,29.82,29.70,18,4,21,0.00
2013-3-22,38.9,31.0,24.8,24.7,21.4,16.4,87,68,51,29.96,29.79,29,6,29,0.00
2013-3-23,43.9,35.6,30.1,26.5,23.2,21.1,72,61,46,29.97,29.89,23,6,25,0.00
2013-3-24,45.4,36.5,25.2,27.6,22.5,19.1,80,58,42,29.98,29.65,14,2,14,0.00
2013-3-25,37.3,33.8,31.2,34.3,30.5,25.6,98,89,66,29.67,29.49,16,2,18,0.28
2013-3-26,48.9,38.5,31.9,35.5,32.3,26.8,98,80,46,29.93,29.65,17,2,18,0.13
2013-3-27,47.7,39.5,34.5,33.8,30.0,27.8,82,69,47,30.04,29.92,22,5,22,0.00
2013-3-28,46.2,39.7,32.8,33.0,29.8,27.9,87,69,52,30.17,30.02,15,3,17,0.00
2013-3-29,51.7,43.7,38.2,34.2,30.8,27.6,76,61,44,30.19,30.09,18,4,20,0.00
2013-3-30,56.3,45.5,33.9,33.3,28.7,25.0,76,54,33,30.19,30.07,14,1,14,0.00
2013-3-31,51.7,45.4,40.8,45.9,37.3,25.8,99,75,48,30.09,29.70,23,6,23,0.08